Regional Weather Roundup
Issued by NWS Memphis, TN

Home | Current Version | Previous Version | Text Only | Print | Product List | Glossary On
Versions: 1 2 3 4 5 6 7 8 9 10 11 12 13 14 15 16 17 18 19 20 21 22 23 24 25 26 27 28 29 30 31 32 33 34 35 36 37 38 39 40 41 42 43 44 45 46 47 48 49 50
000
ASUS44 KMEG 131210
RWRMEG
MEMPHIS CWA HOURLY WEATHER ROUNDUP
NATIONAL WEATHER SERVICE MEMPHIS TN
600 AM CST SAT FEB 13 2016

...WEST TENNESSEE...

CITY           SKY/WX    TMP DP  RH WIND       PRES   REMARKS
MEMPHIS INTL   PTCLDY    28  13  53 NE14      30.52R WCI  17
6HR MIN TEMP:  28; 6HR MAX TEMP:  37;

NWS MEMPHIS      N/A     26 N/A N/A MISG        N/A
JACKSON        CLEAR     23   9  55 N13       30.54R WCI  11
6HR MIN TEMP:  23; 6HR MAX TEMP:  30;

LEXINGTON      CLEAR     21  10  63 N6        30.49R WCI  14
DYERSBURG      PTCLDY    23  10  58 NE10G17   30.58R WCI  12
6HR MIN TEMP:  23; 6HR MAX TEMP:  30;

UNION CITY     CLOUDY    19  10  68 N16       30.56R WCI   5
PARIS          PTCLDY    18   7  62 N13       30.54R WCI   4


...EASTERN ARKANSAS...

CITY           SKY/WX    TMP DP  RH WIND       PRES   REMARKS
JONESBORO      CLOUDY    26   7  44 NE12      30.57R WCI  16
6HR MIN TEMP:  26; 6HR MAX TEMP:  33;

WEST MEMPHIS   HAZE      26  13  57 N15       30.54R VSB 1/4 WCI  14
6HR MIN TEMP:  26; 6HR MAX TEMP:  35;

BATESVILLE     CLOUDY    28  10  47 N6        30.56R WCI  22
6HR MIN TEMP:  28; 6HR MAX TEMP:  36;

NEWPORT        CLOUDY    27  11  51 NE17      30.57R WCI  14
6HR MIN TEMP:  27; 6HR MAX TEMP:  36;

WALNUT RIDGE   CLOUDY    27   3  36 NE10      30.58R WCI  17
6HR MIN TEMP:  27; 6HR MAX TEMP:  32;

BLYTHEVILLE    CLEAR     24   9  52 N20       30.58R WCI  10
6HR MIN TEMP:  24; 6HR MAX TEMP:  30;

SEARCY         CLOUDY    30  16  55 NE13      30.56R WCI  20
6HR MIN TEMP:  30; 6HR MAX TEMP:  39;

STUTTGART      CLOUDY    34  21  60 NE9       30.53R WCI  26
6HR MIN TEMP:  34; 6HR MAX TEMP:  43;

PINE BLUFF     CLOUDY    34  23  64 NE12      30.52R WCI  25
6HR MIN TEMP:  34; 6HR MAX TEMP:  44; 6HR PCP: TRACE;

MONTICELLO     CLOUDY    38  23  55 NE17G24   30.49R WCI  28
6HR MIN TEMP:  38; 6HR MAX TEMP:  47;



...NORTH MISSISSIPPI...

CITY           SKY/WX    TMP DP  RH WIND       PRES   REMARKS
TUPELO         CLEAR     28  14  55 N13       30.48R WCI  17
6HR MIN TEMP:  28; 6HR MAX TEMP:  36;

OXFORD         CLEAR     27  14  59 N9        30.51R WCI  17
TUNICA         CLOUDY    28  10  47 N10       30.55R WCI  19
CORINTH        CLEAR     27  14  59 N6        30.50R WCI  20
GREENWOOD      CLOUDY    33  22  63 N13       30.49R WCI  24
6HR MIN TEMP:  31; 6HR MAX TEMP:  38;

COLUMBUS       CLEAR     31  19  60 N8        30.46R WCI  24
6HR MIN TEMP:  31; 6HR MAX TEMP:  38;

STARKVILLE     FAIR      32  21  64 N7        30.47R WCI  26
GOLDEN TRIANGL CLEAR     30  18  59 N9        30.45R WCI  22


...SOUTHEAST MISSOURI...

CITY           SKY/WX    TMP DP  RH WIND       PRES   REMARKS
WEST PLAINS    CLOUDY    22   1  40 N9        30.52S WCI  12
6HR MIN TEMP:  22; 6HR MAX TEMP:  26;

POPLAR BLUFF   CLOUDY    21   4  47 N14       30.60R WCI   8
6HR MIN TEMP:  21; 6HR MAX TEMP:  28;

CAPE GIRARDEAU CLOUDY    17   7  64 N15       30.61R WCI   2
6HR MIN TEMP:  17; 6HR MAX TEMP:  25;



...NORTHWEST ALABAMA...

CITY           SKY/WX    TMP DP  RH WIND       PRES   REMARKS
MUSCLE SHOALS  CLEAR     26  11  52 N9G18     30.49R WCI  17
6HR MIN TEMP:  26; 6HR MAX TEMP:  35;



...MIDDLE TENNESSEE...

CITY           SKY/WX    TMP DP  RH WIND       PRES   REMARKS
NASHVILLE      PTCLDY    21   9  59 N13       30.50R WCI   9
6HR MIN TEMP:  21; 6HR MAX TEMP:  27;

CLARKSVILLE    CLEAR     18   6  59 N15       30.53R WCI   4
6HR MIN TEMP:  18; 6HR MAX TEMP:  25;

COLUMBIA       CLEAR     21  14  73 N7        30.46R WCI  13


...WESTERN KENTUCKY...

CITY           SKY/WX    TMP DP  RH WIND       PRES   REMARKS
PADUCAH        CLEAR     17   5  59 N14       30.58R WCI   3
6HR MIN TEMP:  17; 6HR MAX TEMP:  25;

FORT CAMPBELL  CLEAR     17   5  57 N9        30.53R WCI   6
6HR MIN TEMP:  17; 6HR MAX TEMP:  25;



...CENTRAL ARKANSAS...

CITY           SKY/WX    TMP DP  RH WIND       PRES   REMARKS
LITTLE ROCK    CLOUDY    36  14  40 NE12      30.53R WCI  28
6HR MIN TEMP:  36; 6HR MAX TEMP:  46;



SKY/WX REPORTED AS FAIR MEANS FEW OR NO CLOUDS BELOW
12 THOUSAND FEET.




USA.gov is the U.S. government's official web portal to all federal, state and local government web resources and services.